This is the latest recevied weather packets stored in our database for station/object SQ9NFI-4. If no packets are shown the sender has not sent any weather packets the latest 10 day(s).
| Time | Temp. | Humidity | Pressure | Rain* | Wind** | Luminosity | Snow |
|---|---|---|---|---|---|---|---|
| 1777806316 | 25.56° C | 25% | 1019 hPa | 0 mm | - | 702 W/m² | - |
| 1777806016 | 25.56° C | 27% | 1019 hPa | 0 mm | - | 700 W/m² | - |
| 1777805716 | 25° C | 28% | 1019 hPa | 0 mm | - | 702 W/m² | - |
| 1777805416 | 25° C | 27% | 1019 hPa | 0 mm | - | 685 W/m² | - |
| 1777805116 | 25° C | 28% | 1019 hPa | 0 mm | - | 685 W/m² | - |
| 1777804816 | 25.56° C | 28% | 1019 hPa | 0 mm | - | 708 W/m² | - |
| 1777804516 | 24.44° C | 26% | 1019.3 hPa | 0 mm | - | 708 W/m² | - |
| 1777804216 | 23.89° C | 28% | 1019.3 hPa | 0 mm | - | 702 W/m² | - |
| 1777803916 | 24.44° C | 25% | 1019.3 hPa | 0 mm | - | 708 W/m² | - |
| 1777803616 | 24.44° C | 28% | 1019.3 hPa | 0 mm | - | 702 W/m² | - |
| 1777803316 | 25° C | 27% | 1019.3 hPa | 0 mm | - | 700 W/m² | - |
| 1777803016 | 25.56° C | 30% | 1019.6 hPa | 0 mm | - | 697 W/m² | - |
| 1777802716 | 25° C | 29% | 1019.6 hPa | 0 mm | - | 697 W/m² | - |
| 1777802416 | 24.44° C | 30% | 1019.6 hPa | 0 mm | - | 700 W/m² | - |
| 1777802116 | 24.44° C | 30% | 1019.6 hPa | 0 mm | - | 694 W/m² | - |
| 1777801816 | 24.44° C | 32% | 1019.6 hPa | 0 mm | - | 691 W/m² | - |
| 1777801516 | 23.89° C | 28% | 1019.6 hPa | 0 mm | - | 685 W/m² | - |
| 1777801216 | 23.33° C | 32% | 1019.6 hPa | 0 mm | - | 683 W/m² | - |
| 1777800916 | 24.44° C | 30% | 1020 hPa | 0 mm | - | 683 W/m² | - |
| 1777800616 | 23.89° C | 29% | 1020 hPa | 0 mm | - | 674 W/m² | - |
| 1777800316 | 23.33° C | 31% | 1020 hPa | 0 mm | - | 674 W/m² | - |
| 1777800016 | 23.89° C | 30% | 1020 hPa | 0 mm | - | 668 W/m² | - |
| 1777799716 | 23.33° C | 31% | 1020 hPa | 0 mm | - | 663 W/m² | - |
| 1777799416 | 23.33° C | 32% | 1020 hPa | 0 mm | - | 657 W/m² | - |
| 1777799116 | 23.33° C | 34% | 1020 hPa | 0 mm | - | 651 W/m² | - |
* Rain latest hour (hover to see other rain measurements)
** Current wind speed in m/s (hover to see current wind gust speed)